Back to catalog

CZ-6A DEB

AliveSSO
NORAD 54323·DEBRIS·🇨🇳 China

Launched Nov 11, 2022 from Taiyuan Satellite Launch Center

Loading…

Next Passes (next 24 hours)

TLE

FreshSource: Space-Track

Epoch: Sep 14, 2026, 10:49 UTC

1 54323U 22151BS  26257.45105852  .00000409  00000-0  25193-3 0  9996
2 54323  98.8534 253.2678 0052645  78.3678 282.3395 14.10262900196878

Track CZ-6A DEB in real time with AllMySat

Download on the App Store